Preview of NWS' New Version of Forecast
This preview is not operational and should not be used for support decisions.

Regional Weather Roundup (RWR)

Issued by National Weather Service (NWS)

                            
000
ASUS43 KDTX 180001
RWRMI 
MICHIGAN HOURLY REGIONAL WEATHER ROUNDUP
NATIONAL WEATHER SERVICE DETROIT/PONTIAC MI
800 PM EDT MON JUN 17 2019

NOTE: "FAIR" INDICATES FEW OR NO CLOUDS BELOW 12,000 FEET WITH NO
SIGNIFICANT WEATHER AND/OR OBSTRUCTION TO VISIBILITY.

MIZ047>049-052>055-059>063-066>070-074>076-081>083-180100-
SOUTHEAST LOWER MICHIGAN
  
CITY           SKY/WX    TMP DP  RH WIND       PRES   REMARKS
ADRIAN         CLOUDY    68  59  73 E5        29.99R                  
6HR MIN TEMP:  66; 6HR MAX TEMP:  71;                                

ANN ARBOR      CLOUDY    68  61  78 S3        29.98R                  
BAD AXE        FAIR      66  55  66 E3        29.99S                  
6HR MIN TEMP:  64; 6HR MAX TEMP:  68;                                

CARO           FAIR      67  56  68 CALM      29.98S                  
DETROIT CITY   FAIR      69  56  62 E6        29.98R                  
6HR MIN TEMP:  68; 6HR MAX TEMP:  71;                                

DETROIT        CLOUDY    70  53  54 SE6       29.98R                  
6HR MIN TEMP:  69; 6HR MAX TEMP:  73;                                

FLINT          PTSUNNY   69  58  67 E3        29.98S                  
6HR MIN TEMP:  67; 6HR MAX TEMP:  72;                                

GROSSE ILE     CLOUDY    64  60  88 S3        29.98R                  
6HR MIN TEMP:  64; 6HR MAX TEMP:  68;                                

HOWELL         CLOUDY    67  58  72 CALM      29.99R                  
6HR MIN TEMP:  65; 6HR MAX TEMP:  70;                                


CITY           SKY/WX    TMP DP  RH WIND       PRES   REMARKS
JACKSON        CLOUDY    68  63  84 NE3       29.98S                  
6HR MIN TEMP:  67; 6HR MAX TEMP:  70;                                

LAMBERTVILLE   CLOUDY    67  58  74 CALM      29.98S                  
6HR MIN TEMP:  67; 6HR MAX TEMP:  71;                                

LANSING        CLOUDY    67  60  78 NE5       29.99R                  
6HR MIN TEMP:  65; 6HR MAX TEMP:  69;                                

LAPEER         CLOUDY    67  57  68 CALM      29.99S                  
6HR MIN TEMP:  65; 6HR MAX TEMP:  70;                                

MASON          CLOUDY    67  62  82 NE3       29.99R                  
6HR MIN TEMP:  66; 6HR MAX TEMP:  69;                                

MONROE         CLOUDY    67  64  92 E6        29.98S                  
6HR MIN TEMP:  67; 6HR MAX TEMP:  72;                                

MT. CLEMENS    CLOUDY    67  60  76 E3        29.98R                  
6HR MIN TEMP:  67; 6HR MAX TEMP:  72;                                

PONTIAC        CLOUDY    70  58  65 CALM      29.97R                  
6HR MIN TEMP:  67; 6HR MAX TEMP:  73;                                

PORT HOPE        N/A     55  49  80 E5        30.00S                  
6HR MIN TEMP:  55; 6HR MAX TEMP:  57;                                

PORT HURON     CLOUDY    63  46  55 CALM      30.00R                  
TRI CITIES     FAIR      69  57  65 CALM      29.99S                  
6HR MIN TEMP:  66; 6HR MAX TEMP:  71;                                

MIDLAND        FAIR      68  57  68 CALM      29.98S                  
TROY           CLOUDY    71  53  53 E5        30.00R                  
$$
MIZ043>046-050>051-056>058-064>065-071>073-077>080-180100-
SOUTHWEST LOWER MICHIGAN
  
CITY           SKY/WX    TMP DP  RH WIND       PRES   REMARKS
BATTLE CREEK   CLOUDY    68  62  81 VRB5      29.98S                  
6HR MIN TEMP:  66; 6HR MAX TEMP:  69;                                

BENTON HARBOR  CLOUDY    61  57  87 VRB3      29.98R                  
6HR MIN TEMP:  61; 6HR MAX TEMP:  69;                                

BIG RAPIDS     PTSUNNY   70  58  65 S5        29.97S                  
6HR MIN TEMP:  69; 6HR MAX TEMP:  73;                                

HOLLAND        CLOUDY    65  58  78 W3        29.98S                  
6HR MIN TEMP:  65; 6HR MAX TEMP:  71;                                

GRAND RAPIDS   CLOUDY    68  60  75 E5        29.98S                  
6HR MIN TEMP:  66; 6HR MAX TEMP:  70;                                

IONIA          CLOUDY    67  57  71 E3        29.99R                  
6HR MIN TEMP:  65; 6HR MAX TEMP:  67;                                

KALAMAZOO      CLOUDY    69  61  75 NE5       29.98R                  
6HR MIN TEMP:  68; 6HR MAX TEMP:  71;                                

LUDINGTON      FAIR      65  51  60 N5        29.97S                  
6HR MIN TEMP:  65; 6HR MAX TEMP:  70;                                

MARSHALL       CLOUDY    68  68 100 CALM      29.98R                  
6HR MIN TEMP:  67; 6HR MAX TEMP:  69;                                

MOUNT PLEASANT FAIR      69  58  68 SE5       29.98S                  
6HR MIN TEMP:  68; 6HR MAX TEMP:  71;                                

MUSKEGON       CLOUDY    67  54  63 W6        29.98S                  
6HR MIN TEMP:  66; 6HR MAX TEMP:  70;                                

SOUTH HAVEN    CLOUDY    63  58  84 CALM      29.98R                  
$$
MIZ016>042-180100-
NORTHERN LOWER MICHIGAN
  
CITY           SKY/WX    TMP DP  RH WIND       PRES   REMARKS
ALPENA         FAIR      63  47  55 SE9       30.00S                  
6HR MIN TEMP:  63; 6HR MAX TEMP:  72;                                

BEAVER ISLAND  FAIR      65  45  47 CALM      29.99R                  
BELLAIRE       FAIR      71  50  48 CALM      29.97S                  
CADILLAC       FAIR      71  51  49 S5        29.96F                  
CHARLEVOIX     FAIR      64  48  56 NW5       30.01S                  
6HR MIN TEMP:  61; 6HR MAX TEMP:  65;                                

FRANKFORT      FAIR      69  47  45 N5        29.98R                  
GAYLORD        FAIR      71  49  45 NE12G18   29.97S                  
6HR MIN TEMP:  68; 6HR MAX TEMP:  74;                                

HOUGHTON LAKE  FAIR      71  46  40 S6        29.97S                  
6HR MIN TEMP:  69; 6HR MAX TEMP:  74;                                

MANISTEE       FAIR      65  51  60 NW6       29.97S                  
OSCODA         FAIR      59  47  63 E5        30.01R                  
6HR MIN TEMP:  59; 6HR MAX TEMP:  66;                                

PELLSTON       FAIR      72  47  40 E8        29.99S                  
6HR MIN TEMP:  72; 6HR MAX TEMP:  75;                                

ROGERS CITY    FAIR      66  51  58 CALM      30.01R                  
TRAVERSE CITY  PTSUNNY   64  50  60 NE6       29.97S                  
6HR MIN TEMP:  64; 6HR MAX TEMP:  72;                                

$$
MIZ007>008-015-180100-
EASTERN UPPER MICHIGAN
  
CITY           SKY/WX    TMP DP  RH WIND       PRES   REMARKS
KINROSS        FAIR      70  47  43 VRB3      29.99S                  
6HR MIN TEMP:  70; 6HR MAX TEMP:  74;                                

MACKINAC ISLAN FAIR      65  46  50 E3        29.99S                  
6HR MIN TEMP:  65; 6HR MAX TEMP:  70;                                

NEWBERRY       FAIR      70  43  37 N6        29.98S                  
6HR MIN TEMP:  69; 6HR MAX TEMP:  75;                                

S. S. MARIE    FAIR      71  50  47 W3        29.97S                  
6HR MIN TEMP:  71; 6HR MAX TEMP:  76;                                

MUNISING         N/A     61  48  62 CALM      29.97S                  
6HR MIN TEMP:  53; 6HR MAX TEMP:  63;                                

$$
MIZ004>006-011>014-085-180100-
CENTRAL UPPER MICHIGAN
  
CITY           SKY/WX    TMP DP  RH WIND       PRES   REMARKS
MANISTIQUE     FAIR      64  47  53 SW3       29.98S                  
6HR MIN TEMP:  63; 6HR MAX TEMP:  66;                                

ESCANABA       FAIR      65  49  56 S6        29.99S                  
6HR MIN TEMP:  65; 6HR MAX TEMP:  68;                                

MENOMINEE      FAIR      66  51  58 E5        30.00S                  
6HR MIN TEMP:  66; 6HR MAX TEMP:  70;                                

SAWYER-GWINN   SUNNY     72  50  46 S8        29.97S                  
$$
MIZ001>003-009>011-084-180100-
WESTERN UPPER MICHIGAN
  
CITY           SKY/WX    TMP DP  RH WIND       PRES   REMARKS
IRON MOUNTAIN  FAIR      72  51  47 S7        29.96S                  
6HR MIN TEMP:  71; 6HR MAX TEMP:  75;                                

HOUGHTON       PTSUNNY   58  42  55 E8        29.96F                  
6HR MIN TEMP:  58; 6HR MAX TEMP:  67;                                

COPPER HARBOR    N/A     60  45  57 SE3       29.97S                  
6HR MIN TEMP:  56; 6HR MAX TEMP:  67;                                

IRONWOOD       CLOUDY    63  49  60 NE3       29.97S                  
6HR MIN TEMP:  61; 6HR MAX TEMP:  72;                                

$$

ABBREVIATIONS USED IN REMARKS
   TC - TEMPERATURE IN CELSIUS
  WCI - WIND CHILL INDEX
   HX - HEAT INDEX
  VSB - VISIBILITY